Waarnemingen

Advertentie
Mijn weer
Shoreham Airport, Groot Brittannië (3876): temperatuur & dauwpunt: 21.01.2021 13:00:00 - 27.01.2021 13:00:00 (GMT)Shoreham Airport, Groot Brittannië (3876): windsnelheid & windstoten: 21.01.2021 13:00:00 - 27.01.2021 13:00:00 (GMT)Shoreham Airport, Groot Brittannië (3876): windrichting: 21.01.2021 13:00:00 - 27.01.2021 13:00:00 (GMT)Shoreham Airport, Groot Brittannië (3876): luchtdruk: 21.01.2021 13:00:00 - 27.01.2021 13:00:00 (GMT)Shoreham Airport, Groot Brittannië (3876): zicht: 21.01.2021 13:00:00 - 27.01.2021 13:00:00 (GMT)Shoreham Airport, Groot Brittannië (3876): neerslag: 21.01.2021 13:00:00 - 27.01.2021 13:00:00 (GMT)
Datum & Tijd tt [°C] td [°C] ff [km/u] ff [kn] fx [km/u] fx [kn] dd ppp [hPa] vv [km] rr [mm]
27.01.2021 13:00:00 - - - - - - - - - -
27.01.2021 12:00:00 8,6 8,6 5 3 - - ZW 1013,3 0,9 0,4
27.01.2021 11:00:00 8,6 8,6 8 4 - - W 1013,6 2,5 0,2
27.01.2021 10:00:00 8,3 8,3 11 6 - - WZW 1013,0 - 0,0
27.01.2021 09:00:00 8,0 8,0 5 3 - - W 1012,5 - 0,0
27.01.2021 08:00:00 7,6 7,6 8 4 - - WZW 1012,1 - 0,0
27.01.2021 07:00:00 7,6 7,6 5 3 - - W 1011,7 - 0,0
27.01.2021 06:00:00 7,8 7,8 4 2 - - W 1011,1 - 0,0
27.01.2021 05:00:00 8,0 8,0 9 5 - - WZW 1011,2 - 0,0
27.01.2021 04:00:00 7,9 7,9 8 4 - - ZZW 1010,7 - 0,0
27.01.2021 03:00:00 7,9 7,9 5 3 - - W 1010,8 - 0,0
27.01.2021 02:00:00 7,7 7,7 8 4 - - W 1010,8 - 0,0
27.01.2021 01:00:00 7,7 7,7 15 8 - - ZW 1011,1 - 0,4
27.01.2021 00:00:00 7,3 7,3 16 9 - - ZW 1011,4 - 0,6
26.01.2021 23:00:00 6,9 6,9 21 11 - - ZZW 1011,8 - 0,4
26.01.2021 22:00:00 6,6 6,5 24 13 - - ZZW 1012,4 - 0,4
26.01.2021 21:00:00 6,5 6,4 28 15 - - ZZW 1012,7 - 0,8
26.01.2021 20:00:00 6,1 5,9 28 15 - - Z 1013,6 - 0,8
26.01.2021 19:00:00 6,0 5,6 31 17 48 26 Z 1014,3 - 0,4
26.01.2021 18:00:00 5,9 5,5 31 17 50 27 Z 1014,6 1,5 0,4
26.01.2021 17:00:00 5,9 5,4 35 19 52 28 Z 1014,8 1,5 0,2
26.01.2021 16:00:00 6,1 4,5 35 19 52 28 Z 1015,5 10 0,0
26.01.2021 15:00:00 6,5 4,1 34 18 48 26 Z 1016,1 - 0,0
26.01.2021 14:00:00 6,5 4,0 35 19 50 27 ZZW 1017,3 10 0,0
26.01.2021 13:00:00 6,4 3,9 31 17 46 25 ZZW 1017,5 10 0,0
26.01.2021 12:00:00 6,7 3,8 26 14 - - ZW 1017,8 10 0,2
26.01.2021 11:00:00 6,5 5,0 29 16 - - ZZW 1018,4 10 0,2
26.01.2021 10:00:00 4,5 3,8 16 9 - - ZW 1019,2 9 0,2
26.01.2021 09:00:00 -0,2 -0,3 2 1 - - ZO 1018,9 - 0,0
26.01.2021 08:00:00 -0,9 -1,1 0 0 - - N 1018,7 - 0,0
26.01.2021 07:00:00 -1,6 -1,8 2 1 - - O 1018,4 - 0,0
26.01.2021 06:00:00 -2,3 -2,6 2 1 - - NNO 1018,4 - 0,0
26.01.2021 05:00:00 -2,7 -3,0 4 2 - - NO 1018,5 - 0,0
26.01.2021 04:00:00 -2,9 -3,4 4 2 - - O 1018,5 - 0,0
26.01.2021 03:00:00 -2,3 -2,6 4 2 - - O 1018,7 - 0,0
26.01.2021 02:00:00 -3,5 -4,0 8 4 - - W 1018,5 - 0,0
26.01.2021 01:00:00 -2,3 -3,0 2 1 - - O 1018,3 - 0,0
26.01.2021 00:00:00 -1,6 -2,5 4 2 - - WNW 1017,9 - 0,0
25.01.2021 23:00:00 -1,5 -3,1 8 4 - - W 1017,7 - 0,0
25.01.2021 22:00:00 -1,1 -2,9 11 6 - - WZW 1017,2 - 0,0
25.01.2021 21:00:00 -0,2 -2,1 15 8 - - WZW 1016,8 - 0,0
25.01.2021 20:00:00 -0,1 -1,9 13 7 - - WZW 1016,2 - 0,0
25.01.2021 19:00:00 0,5 -1,5 11 6 - - W 1015,5 10 0,0
25.01.2021 18:00:00 0,3 -2,3 9 5 - - W 1014,8 10 0,0
25.01.2021 17:00:00 2,8 -0,9 15 8 - - W 1014,0 10 0,0
25.01.2021 16:00:00 4,3 -0,6 16 9 - - W 1013,4 10 0,0
25.01.2021 15:00:00 5,6 0,0 16 9 - - WNW 1012,5 10 0,0
25.01.2021 14:00:00 5,9 0,3 18 10 - - WNW 1011,8 10 0,0
25.01.2021 13:00:00 5,4 0,2 16 9 - - WNW 1011,4 10 0,0
25.01.2021 12:00:00 4,8 0,3 16 9 - - NW 1011,0 10 0,0
25.01.2021 11:00:00 2,7 -1,1 8 4 - - N 1010,8 10 0,0
25.01.2021 10:00:00 0,9 -2,1 9 5 - - NNW 1010,0 10 0,0
25.01.2021 09:00:00 -0,9 -2,9 11 6 - - NNW 1009,1 - 0,0
25.01.2021 08:00:00 -1,4 -3,0 16 9 - - N 1008,1 - 0,0
25.01.2021 07:00:00 -1,2 -2,2 16 9 - - NNW 1006,9 - 0,0
25.01.2021 06:00:00 -1,0 -2,1 15 8 - - NNW 1006,1 - 0,0
25.01.2021 05:00:00 -0,2 -1,3 16 9 - - NNW 1005,1 - 0,0
25.01.2021 04:00:00 0,2 -1,0 11 6 - - NW 1003,9 - 0,0
25.01.2021 03:00:00 1,4 0,1 18 10 - - NNW 1002,8 - 0,0
25.01.2021 02:00:00 0,8 0,0 13 7 - - NNW 1001,6 - 0,0
25.01.2021 01:00:00 0,9 0,1 13 7 - - NNW 1000,6 - 0,0
25.01.2021 00:00:00 0,8 -0,5 11 6 - - NNW 999,4 - 0,0
24.01.2021 23:00:00 0,9 -0,9 11 6 - - NNW 998,3 - 0,0
24.01.2021 22:00:00 0,9 -1,1 16 9 - - NW 997,4 - 0,0
24.01.2021 21:00:00 0,3 -1,1 13 7 - - NNW 996,5 - 0,0
24.01.2021 20:00:00 1,1 0,0 18 10 - - NNW 995,9 - 0,0
24.01.2021 19:00:00 1,1 0,2 13 7 - - N 995,1 - 0,0
24.01.2021 18:00:00 0,9 0,2 15 8 - - NNW 995,0 - 0,0
24.01.2021 17:00:00 0,6 -0,7 9 5 - - NNW 995,0 10 0,0
24.01.2021 16:00:00 2,8 0,9 16 9 - - WNW 995,1 10 0,0
24.01.2021 15:00:00 4,3 1,4 15 8 - - WNW 994,5 10 0,0
24.01.2021 14:00:00 4,2 1,9 21 11 - - WNW 994,4 10 0,0
24.01.2021 13:00:00 5,9 3,2 16 9 - - W 994,1 10 0,0
24.01.2021 12:00:00 5,4 4,1 8 4 46 25 ZW 994,5 10 1,0
24.01.2021 11:00:00 3,6 2,7 28 15 50 27 ZZO 995,4 5 0,6
24.01.2021 10:00:00 3,3 2,0 37 20 54 29 ZZO 996,2 - 0,2
24.01.2021 09:00:00 4,3 1,4 39 21 54 29 Z 996,6 - 0,0
24.01.2021 08:00:00 5,2 1,1 26 14 - - Z 997,2 - 0,0
24.01.2021 07:00:00 0,2 -0,2 11 6 - - O 998,0 - 0,0
24.01.2021 06:00:00 -2,2 -2,4 5 3 - - NO 998,9 - 0,0
24.01.2021 05:00:00 -3,9 -4,3 4 2 - - O 999,4 - 0,0
24.01.2021 04:00:00 -4,0 -4,3 2 1 - - N 1000,0 - 0,0
24.01.2021 03:00:00 -4,8 -5,6 2 1 - - NO 1000,0 - 0,0
24.01.2021 02:00:00 -3,7 -5,4 2 1 - - ONO 1000,3 - 0,0
24.01.2021 01:00:00 -0,9 -2,7 5 3 - - WZW 1000,1 - 0,0
24.01.2021 00:00:00 -2,1 -3,8 4 2 - - O 999,6 - 0,0
23.01.2021 23:00:00 -0,8 -2,2 9 5 - - NW 999,3 - 0,0
23.01.2021 22:00:00 -1,8 -3,0 8 4 - - W 999,1 - 0,0
23.01.2021 21:00:00 -0,6 -2,0 15 8 - - WZW 998,7 - 0,0
23.01.2021 20:00:00 -1,6 -2,9 8 4 - - WZW 998,1 - 0,0
23.01.2021 19:00:00 0,1 -2,2 11 6 - - W 997,6 - 0,0
23.01.2021 18:00:00 1,3 -1,7 13 7 - - WNW 997,2 - 0,0
23.01.2021 17:00:00 1,8 -1,1 11 6 - - WNW 996,7 10 0,0
23.01.2021 16:00:00 4,0 -0,4 13 7 - - NW 996,2 10 0,0
23.01.2021 15:00:00 4,7 0,4 18 10 - - NW 995,7 10 0,2
23.01.2021 14:00:00 4,8 1,4 15 8 - - NW 995,3 10 0,0
23.01.2021 13:00:00 3,8 1,7 16 9 - - NNW 995,1 10 0,0
23.01.2021 12:00:00 2,1 1,4 13 7 - - N 995,0 10 0,0
23.01.2021 11:00:00 0,9 0,5 16 9 - - N 995,0 - 0,0
23.01.2021 10:00:00 0,4 0,1 16 9 - - N 994,5 - 0,0
23.01.2021 09:00:00 -0,1 -0,5 11 6 - - N 994,3 - 0,0
23.01.2021 08:00:00 0,2 -0,2 13 7 - - N 994,0 - 0,0
23.01.2021 07:00:00 -0,1 -0,4 11 6 - - N 993,9 - 0,0
23.01.2021 06:00:00 -0,8 -1,2 5 3 - - N 993,8 - 0,0
23.01.2021 05:00:00 -0,2 -0,7 4 2 - - NNO 994,2 - 0,0
23.01.2021 04:00:00 0,4 -0,2 2 1 - - WZW 994,8 - 0,0
23.01.2021 03:00:00 0,1 -0,9 8 4 - - WNW 995,0 - 0,0
23.01.2021 02:00:00 0,8 -0,2 9 5 - - W 995,4 - 0,0
23.01.2021 01:00:00 2,7 0,4 9 5 - - WNW 995,0 - 0,0
23.01.2021 00:00:00 4,1 2,0 13 7 - - W 995,4 - 0,0
22.01.2021 23:00:00 3,5 2,0 13 7 - - W 995,2 - 0,0
22.01.2021 22:00:00 2,9 1,4 11 6 - - W 994,5 - 0,0
22.01.2021 21:00:00 3,3 2,0 11 6 - - W 994,5 - 0,0
22.01.2021 20:00:00 3,0 1,2 8 4 52 28 W 994,6 - 0,0
22.01.2021 19:00:00 6,0 2,9 28 15 54 29 WZW 994,7 - 0,0
22.01.2021 18:00:00 5,4 2,6 22 12 - - ZW 994,3 10 0,0
22.01.2021 17:00:00 6,5 4,3 16 9 - - ZZW 994,5 10 0,0
22.01.2021 16:00:00 6,7 4,0 24 13 - - ZZW 994,4 10 0,0
22.01.2021 15:00:00 7,1 3,8 13 7 - - ZW 994,6 10 0,0
22.01.2021 14:00:00 7,8 4,1 16 9 - - ZZW 994,5 10 0,0
22.01.2021 13:00:00 7,4 3,1 15 8 - - WZW 994,8 10 0,0
22.01.2021 12:00:00 5,9 3,3 15 8 - - WZW 995,0 10 0,2
22.01.2021 11:00:00 4,3 3,1 9 5 - - WZW 994,9 10 0,0
22.01.2021 10:00:00 1,0 0,7 11 6 - - WZW 994,4 10 0,0
22.01.2021 09:00:00 -0,8 -1,2 9 5 - - W 993,6 10 0,0
22.01.2021 08:00:00 0,4 -0,2 4 2 - - W 992,7 - 0,0
22.01.2021 07:00:00 0,4 -0,7 4 2 - - WZW 991,8 - 0,0
22.01.2021 06:00:00 2,8 1,3 18 10 - - W 991,0 - 0,0
22.01.2021 05:00:00 0,7 -0,1 11 6 - - W 991,0 - 0,0
22.01.2021 04:00:00 2,5 1,5 13 7 - - W 990,5 - 0,0
22.01.2021 03:00:00 2,2 1,3 11 6 - - W 990,2 - 0,0
22.01.2021 02:00:00 2,5 1,5 13 7 - - W 989,6 - 0,0
22.01.2021 01:00:00 3,1 2,0 15 8 - - W 989,0 - 0,0
22.01.2021 00:00:00 2,6 1,5 13 7 - - WZW 988,7 - 0,0
21.01.2021 23:00:00 3,6 2,4 15 8 - - W 988,0 - 0,0
21.01.2021 22:00:00 5,1 3,3 16 9 - - W 986,7 - 0,0
21.01.2021 21:00:00 5,0 3,6 11 6 - - W 986,1 - 0,0
21.01.2021 20:00:00 5,4 4,0 13 7 - - WZW 985,4 - 0,0
21.01.2021 19:00:00 5,2 3,5 8 4 - - WZW 984,9 - 0,0
21.01.2021 18:00:00 5,9 3,2 15 8 - - ZZO 984,4 10 0,2
21.01.2021 17:00:00 6,2 2,8 18 10 - - ZZO 985,1 10 0,0
21.01.2021 16:00:00 7,1 3,0 16 9 - - ZZW 985,6 10 0,0
21.01.2021 15:00:00 7,6 4,2 22 12 - - ZZW 986,6 10 0,0
21.01.2021 14:00:00 7,6 4,9 26 14 50 27 ZZW 987,6 10 0,6
21.01.2021 13:00:00 7,8 5,9 21 11 46 25 ZW 988,5 9 0,2

tt = temperatuur
td = dauwpunt
ff = windsnelheid
fx = windstoten
dd = windrichting
ppp = luchtdruk
vv = zicht
rr = neerslag

Weerstations in de omgeving